Location: *
(2.5500°S, 65.9667°W)
Time: 17:05:01
(UTC+00:00)

XW-2D - Pass Details

Date: 06 July 2022
Orbit: 496 x 514 km, 97.5° (Epoch: 10 August)

Event Time Altitude Azimuth Distance (km) Brightness Sun altitude
Rises 09:32:32 0° 30° (NNE) 2,603 ? -13.9°
Reaches altitude 10° 09:34:50 10° 42° (NE) 1,719 ? -13.4°
Maximum altitude 09:38:00 27° 102° (ESE) 995 ? -12.7°
Drops below altitude 10° 09:41:11 10° 161° (SSE) 1,718 ? -11.9°
Sets 09:43:28 0° 173° (S) 2,601 ? -11.4°
